Location: Vihti�l�
(61.3833°N, 23.0667°E)
Time: 04:06:02
(UTC+00:00)

USA 307 - Pass Details

Date: 29 November 2020
Orbit: 564 x 583 km, 54.0° (Epoch: 11 January)

Event Time Altitude Azimuth Distance (km) Brightness Sun altitude
Exits shadow 03:30:05 31° 176° (S) 1,032 4.2 -24.3°
Drops below altitude 10° 03:33:49 10° 118° (ESE) 1,908 6.4 -23.8°
Sets 03:36:15 0° 108° (ESE) 2,808 7.7 -23.5°
